Tracking 31027 objects as of 19-Jul-2025
HD Live streaming from Space Station
objects crossing your sky now

ECHOSTAR 6

Track ECHOSTAR 6 now!
ECHOSTAR 6 is classified as:


NORAD ID: 26402
Int'l Code: 2000-038A
Perigee: 36,200.3 km
Apogee: 36,227.4 km
Inclination: 10.1 °
Period: 1,457.6 minutes
Semi major axis: 42584 km
RCS: 25.1188 m2 (large)
Launch date: July 14, 2000
Source: United States (US)
Launch site: AIR FORCE EASTERN TEST RANGE (AFETR)

CONUS, Hawaii, Alaska and Puerto Rico; 32 Ku-band transponders
Your satellite tracking list
FENGYUN 1C DEB
Track 1 satellite(s)




NASA's NSSDC Master Catalog

Two Line Element Set (TLE):
1 26402U 00038A   25198.88030988 -.00000231  00000-0  00000-0 0  9991
2 26402  10.1469  49.5419 0003174  35.0556 141.9316  0.98791701 91207
Source of the keplerian elements: AFSPC